When you browse on this site, cookies collect data to enhance your experience and personalize the content and advertising you see.
Visit our Privacy Policy to learn more. By continuing to use the site, you agree to this use of cookies and data.
  • în România
  • Lista ţărilor
  • Pe 7 zile
  • Temperatura apei
  • Hartă satelitară
  • Meteo pe hartă
  • Widget-uri
  • user-avatar
    Intrare

    Meteo pe oră la Zarka

    Astăzi, 26 Martie, Marţi

    Timp Temperatura Precipitaţii Vânt Presiune Umiditate
    00:00 +7°C° 0 mm 4 m/s 699 mmHg 71%
    01:00 +6°C° 0 mm 4 m/s 700 mmHg 72%
    02:00 +6°C° 0 mm 4 m/s 700 mmHg 76%
    03:00 +7°C° 0 mm 3 m/s 700 mmHg 77%
    04:00 +7°C° 0 mm 3 m/s 700 mmHg 78%
    05:00 +6°C° 0 mm 2 m/s 701 mmHg 80%
    06:00 +7°C° 0 mm 3 m/s 701 mmHg 75%
    07:00 +8°C° 0 mm 3 m/s 701 mmHg 70%
    08:00 +9°C° 0 mm 3 m/s 702 mmHg 65%
    09:00 +10°C° 0 mm 4 m/s 702 mmHg 61%
    10:00 +10°C° 0 mm 5 m/s 702 mmHg 57%
    11:00 +13°C° 0 mm 5 m/s 702 mmHg 52%
    12:00 +13°C° 0 mm 5 m/s 702 mmHg 50%
    13:00 +14°C° 0 mm 6 m/s 702 mmHg 49%
    14:00 +14°C° 0 mm 6 m/s 703 mmHg 47%
    15:00 +14°C° 0 mm 6 m/s 703 mmHg 49%
    16:00 +13°C° 0 mm 6 m/s 703 mmHg 52%
    17:00 +13°C° 0 mm 5 m/s 702 mmHg 54%
    18:00 +12°C° 0 mm 4 m/s 703 mmHg 58%
    19:00 +11°C° 0 mm 4 m/s 703 mmHg 62%
    20:00 +10°C° 0 mm 3 m/s 703 mmHg 66%
    21:00 +10°C° 0 mm 2 m/s 704 mmHg 67%
    22:00 +10°C° 0 mm 2 m/s 704 mmHg 69%
    23:00 +10°C° 0 mm 1 m/s 704 mmHg 70%

    Mâine, 27 Martie, Miercuri

    Timp Temperatura Precipitaţii Vânt Presiune Umiditate
    00:00 +10°C° 0 mm 1 m/s 704 mmHg 71%
    01:00 +10°C° 0 mm 1 m/s 704 mmHg 72%
    02:00 +10°C° 0 mm 1 m/s 704 mmHg 72%
    03:00 +9°C° 0 mm 1 m/s 704 mmHg 73%
    04:00 +9°C° 0 mm 1 m/s 704 mmHg 74%
    05:00 +8°C° 0 mm 2 m/s 704 mmHg 75%
    06:00 +9°C° 0 mm 3 m/s 705 mmHg 69%
    07:00 +10°C° 0 mm 3 m/s 705 mmHg 63%
    08:00 +12°C° 0 mm 4 m/s 705 mmHg 57%
    09:00 +13°C° 0 mm 5 m/s 706 mmHg 53%
    10:00 +14°C° 0 mm 6 m/s 706 mmHg 49%
    11:00 +15°C° 0 mm 6 m/s 706 mmHg 45%
    12:00 +15°C° 0 mm 7 m/s 706 mmHg 45%
    13:00 +15°C° 0 mm 7 m/s 706 mmHg 45%
    14:00 +16°C° 0 mm 8 m/s 706 mmHg 44%
    15:00 +15°C° 0 mm 7 m/s 706 mmHg 48%
    16:00 +14°C° 0 mm 7 m/s 706 mmHg 52%
    17:00 +12°C° 0 mm 7 m/s 706 mmHg 57%
    18:00 +13°C° 0 mm 5 m/s 706 mmHg 62%
    19:00 +12°C° 0 mm 4 m/s 706 mmHg 67%
    20:00 +11°C° 0 mm 3 m/s 707 mmHg 72%
    21:00 +12°C° 0 mm 2 m/s 707 mmHg 74%
    22:00 +10°C° 0 mm 2 m/s 707 mmHg 76%
    23:00 +10°C° 0 mm 2 m/s 707 mmHg 78%

    Poimâine, 28 Martie, Joi

    Timp Temperatura Precipitaţii Vânt Presiune Umiditate
    00:00 +10°C° 0 mm 2 m/s 707 mmHg 79%
    01:00 +9°C° 0 mm 2 m/s 707 mmHg 79%
    02:00 +9°C° 0 mm 2 m/s 707 mmHg 80%
    03:00 +10°C° 0 mm 1 m/s 706 mmHg 82%
    04:00 +9°C° 0 mm 1 m/s 706 mmHg 84%
    05:00 +9°C° 0 mm 1 m/s 706 mmHg 86%
    06:00 +10°C° 0 mm 1 m/s 707 mmHg 79%
    07:00 +11°C° 0 mm 1 m/s 707 mmHg 72%
    08:00 +12°C° 0 mm 1 m/s 708 mmHg 66%
    09:00 +14°C° 0 mm 1 m/s 708 mmHg 56%
    10:00 +15°C° 0 mm 2 m/s 708 mmHg 47%
    11:00 +17°C° 0 mm 2 m/s 708 mmHg 38%
    12:00 +17°C° 0 mm 3 m/s 707 mmHg 35%
    13:00 +18°C° 0 mm 3 m/s 707 mmHg 32%
    14:00 +19°C° 0 mm 4 m/s 706 mmHg 29%
    15:00 +19°C° 0 mm 4 m/s 706 mmHg 31%
    16:00 +18°C° 0 mm 4 m/s 705 mmHg 33%
    17:00 +18°C° 0 mm 4 m/s 705 mmHg 35%
    18:00 +17°C° 0 mm 3 m/s 705 mmHg 45%
    19:00 +16°C° 0 mm 3 m/s 705 mmHg 54%
    20:00 +15°C° 0 mm 2 m/s 705 mmHg 63%
    21:00 +14°C° 0 mm 1 m/s 705 mmHg 66%
    22:00 +14°C° 0 mm 1 m/s 705 mmHg 68%
    23:00 +13°C° 0 mm 0 m/s 704 mmHg 71%

    29 Martie, Vineri

    Timp Temperatura Precipitaţii Vânt Presiune Umiditate
    00:00 +13°C° 0 mm 0 m/s 704 mmHg 70%
    01:00 +14°C° 0 mm 1 m/s 704 mmHg 70%
    02:00 +13°C° 0 mm 1 m/s 703 mmHg 69%
    03:00 +13°C° 0 mm 1 m/s 703 mmHg 67%
    04:00 +13°C° 0 mm 1 m/s 703 mmHg 65%
    05:00 +13°C° 0 mm 1 m/s 703 mmHg 62%
    06:00 +14°C° 0 mm 2 m/s 703 mmHg 56%
    07:00 +14°C° 0 mm 3 m/s 703 mmHg 50%
    08:00 +16°C° 0 mm 3 m/s 703 mmHg 45%
    09:00 +18°C° 0 mm 4 m/s 703 mmHg 38%
    10:00 +19°C° 0 mm 4 m/s 703 mmHg 30%
    11:00 +21°C° 0 mm 5 m/s 702 mmHg 23%
    12:00 +20°C° 0.2 mm 4 m/s 702 mmHg 26%
    13:00 +20°C° 0.2 mm 3 m/s 701 mmHg 28%
    14:00 +19°C° 0.2 mm 2 m/s 701 mmHg 30%
    15:00 +19°C° 0.1 mm 2 m/s 700 mmHg 34%
    16:00 +18°C° 0.1 mm 2 m/s 700 mmHg 38%
    17:00 +18°C° 0.1 mm 2 m/s 699 mmHg 41%
    18:00 +17°C° 0.1 mm 2 m/s 699 mmHg 45%
    19:00 +17°C° 0.1 mm 2 m/s 699 mmHg 49%
    20:00 +16°C° 0.1 mm 3 m/s 699 mmHg 53%
    21:00 +16°C° 0 mm 3 m/s 699 mmHg 54%
    22:00 +16°C° 0 mm 3 m/s 698 mmHg 55%
    23:00 +16°C° 0 mm 3 m/s 698 mmHg 56%

    30 Martie, Sâmbătă

    Timp Temperatura Precipitaţii Vânt Presiune Umiditate
    00:00 +15°C° 0 mm 2 m/s 698 mmHg 58%
    01:00 +15°C° 0 mm 2 m/s 697 mmHg 60%
    02:00 +15°C° 0 mm 2 m/s 697 mmHg 62%
    03:00 +14°C° 0.3 mm 2 m/s 697 mmHg 70%
    04:00 +12°C° 0.3 mm 3 m/s 697 mmHg 78%
    05:00 +11°C° 0.3 mm 3 m/s 697 mmHg 86%
    06:00 +12°C° 0.3 mm 4 m/s 697 mmHg 83%
    07:00 +12°C° 0.3 mm 5 m/s 698 mmHg 79%
    08:00 +13°C° 0.3 mm 5 m/s 698 mmHg 75%
    09:00 +13°C° 0 mm 6 m/s 698 mmHg 69%
    10:00 +14°C° 0 mm 7 m/s 698 mmHg 63%
    11:00 +15°C° 0 mm 8 m/s 698 mmHg 56%
    12:00 +15°C° 0 mm 8 m/s 698 mmHg 52%
    13:00 +16°C° 0 mm 8 m/s 698 mmHg 49%
    14:00 +16°C° 0 mm 9 m/s 697 mmHg 45%
    15:00 +16°C° 0 mm 9 m/s 697 mmHg 45%
    16:00 +15°C° 0 mm 9 m/s 697 mmHg 45%
    17:00 +15°C° 0 mm 9 m/s 697 mmHg 45%
    18:00 +14°C° 0 mm 7 m/s 697 mmHg 54%
    19:00 +13°C° 0 mm 6 m/s 698 mmHg 63%
    20:00 +10°C° 0 mm 5 m/s 698 mmHg 71%
    21:00 +10°C° 0.1 mm 5 m/s 698 mmHg 74%
    22:00 +10°C° 0.1 mm 5 m/s 698 mmHg 76%
    23:00 +10°C° 0.1 mm 5 m/s 698 mmHg 79%

    31 Martie, Duminică

    Timp Temperatura Precipitaţii Vânt Presiune Umiditate
    00:00 +10°C° 0.2 mm 5 m/s 698 mmHg 79%
    01:00 +10°C° 0.2 mm 5 m/s 697 mmHg 79%
    02:00 +10°C° 0.2 mm 5 m/s 697 mmHg 79%
    03:00 +10°C° 0 mm 4 m/s 697 mmHg 80%
    04:00 +8°C° 0 mm 4 m/s 697 mmHg 82%
    05:00 +9°C° 0 mm 3 m/s 697 mmHg 83%
    06:00 +8°C° 0 mm 4 m/s 698 mmHg 76%
    07:00 +10°C° 0 mm 4 m/s 698 mmHg 69%
    08:00 +10°C° 0 mm 5 m/s 698 mmHg 62%
    09:00 +10°C° 0.1 mm 6 m/s 698 mmHg 59%
    10:00 +11°C° 0.1 mm 7 m/s 698 mmHg 55%
    11:00 +12°C° 0.1 mm 8 m/s 698 mmHg 52%
    12:00 +12°C° 0.2 mm 8 m/s 698 mmHg 52%
    13:00 +12°C° 0.2 mm 8 m/s 698 mmHg 53%
    14:00 +12°C° 0.2 mm 8 m/s 698 mmHg 53%
    15:00 +11°C° 0.1 mm 8 m/s 698 mmHg 54%
    16:00 +11°C° 0.1 mm 8 m/s 698 mmHg 54%
    17:00 +10°C° 0.1 mm 7 m/s 698 mmHg 55%
    18:00 +10°C° 0 mm 6 m/s 698 mmHg 56%
    19:00 +9°C° 0 mm 6 m/s 699 mmHg 58%
    20:00 +9°C° 0 mm 5 m/s 699 mmHg 60%
    21:00 +8°C° 0 mm 5 m/s 699 mmHg 63%
    22:00 +8°C° 0 mm 5 m/s 699 mmHg 67%
    23:00 +7°C° 0 mm 5 m/s 699 mmHg 70%
    Arată mai mult